User: anonymous   Login
Location: Stamford Observatory
(41.1241°N, 73.5498°W)
Time: 03:43:55
(UTC-04:00)
Language:

IRS-P3 - Orbit

View from above orbital plane
View from above orbital plane
View from above satellite
View from above satellite

Ground track
Ground track

The orbit data is extracted from the following two-line orbital elements,

1 23827U 96017A   14302.86825003  .00000216  00000-0  11698-3 0  1424
2 23827 098.6346 239.1414 0002326 309.3305 119.9496 14.22250213965753
Epoch (UTC): 29 October 2014 20:50:16
Eccentricity: 0.0002326
inclination: 98.6346°
perigee height: 816 km
apogee height: 819 km
right ascension of ascending node: 239.1414°
argument of perigee: 309.3305°
revolutions per day: 14.22250213
mean anomaly at epoch: 119.9496°
orbit number at epoch: 96575

The dashed part of the orbit path shows where the satellite is in the earth's shadow,  

DLR